ASA7015 PANC-PASC

Flight info

Callsign ASA7015
Flight time N/A
Altitude 38000
Route CAWIN BIXER ARCON SCC
Aircraft B738/M-SDE2E3FGHIRWXY/LB1

Departure

Time N/A
Airport Ted Stevens Anchorage International Airport (PANC)

Arrival

Time 2026-05-01 08:35
Airport Deadhorse Airport (PASC)
Time Latitude Longitude Altitude Speed Heading
2026-05-01 07:23 62.35239 -149.46546 30532 ft 485 kts 12°
2026-05-01 07:23 62.41793 -149.43279 31496 ft 483 kts 12°
2026-05-01 07:24 62.45070 -149.41639 32034 ft 481 kts 12°
2026-05-01 07:24 62.48334 -149.40001 32523 ft 480 kts 12°
2026-05-01 07:24 62.51552 -149.38384 32968 ft 480 kts 12°
2026-05-01 07:24 62.54820 -149.36737 33435 ft 479 kts 13°
2026-05-01 07:25 62.58073 -149.35094 33917 ft 478 kts 12°
2026-05-01 07:25 62.61287 -149.33467 34227 ft 480 kts 12°
2026-05-01 07:25 62.64568 -149.31803 34559 ft 481 kts 12°
2026-05-01 07:25 62.67798 -149.30161 34928 ft 481 kts 12°
2026-05-01 07:26 62.71064 -149.28496 35312 ft 480 kts 12°
2026-05-01 07:26 62.74332 -149.26827 35646 ft 481 kts 12°
2026-05-01 07:26 62.77594 -149.25157 35963 ft 481 kts 12°
2026-05-01 07:26 62.80858 -149.23481 36307 ft 481 kts 11°
2026-05-01 07:27 62.84079 -149.21824 36672 ft 481 kts 11°
2026-05-01 07:27 62.87343 -149.20142 37016 ft 481 kts 11°
2026-05-01 07:27 62.90608 -149.18456 37381 ft 480 kts 11°
2026-05-01 07:27 62.93876 -149.16763 37756 ft 480 kts 11°
2026-05-01 07:28 62.97101 -149.15088 38059 ft 481 kts 11°
2026-05-01 07:28 63.03681 -149.11660 38053 ft 487 kts 11°
2026-05-01 07:29 63.10250 -149.08223 38032 ft 480 kts 11°
2026-05-01 07:29 63.16715 -149.04824 38042 ft 479 kts 11°
2026-05-01 07:30 63.23209 -149.01409 38038 ft 480 kts 11°
2026-05-01 07:30 63.29740 -148.98450 38012 ft 477 kts
2026-05-01 07:31 63.36335 -148.97901 38016 ft 475 kts 358°
2026-05-01 07:32 63.52895 -148.97044 37930 ft 476 kts 359°
2026-05-01 07:33 63.62771 -148.96331 37892 ft 474 kts
2026-05-01 07:33 63.72641 -148.95619 37886 ft 471 kts 359°
2026-05-01 07:34 63.82441 -148.94892 37888 ft 469 kts 359°
2026-05-01 07:35 63.89005 -148.94420 37920 ft 475 kts 356°
2026-05-01 07:35 63.95669 -148.94021 37893 ft 485 kts 359°
2026-05-01 07:36 64.01332 -148.93586 37893 ft 490 kts 359°
2026-05-01 07:36 64.09251 -148.92918 37874 ft 487 kts 359°
2026-05-01 07:37 64.18209 -148.92244 37845 ft 477 kts 360°
2026-05-01 07:37 64.24823 -148.91676 37871 ft 477 kts 359°
2026-05-01 07:38 64.31424 -148.91211 37850 ft 471 kts 359°
2026-05-01 07:39 64.41175 -148.90502 37851 ft 465 kts 359°
2026-05-01 07:39 64.50911 -148.89759 37870 ft 471 kts 359°
2026-05-01 07:40 64.57527 -148.89256 37875 ft 481 kts 359°
2026-05-01 07:40 64.64236 -148.88739 37871 ft 483 kts 359°
2026-05-01 07:41 64.70922 -148.88214 37860 ft 483 kts 359°
2026-05-01 07:42 64.80976 -148.87421 37865 ft 480 kts 359°
2026-05-01 07:42 64.87653 -148.86893 37865 ft 478 kts 359°
2026-05-01 07:43 64.94265 -148.86369 37861 ft 476 kts 359°
2026-05-01 07:43 65.04172 -148.85580 37854 ft 472 kts 359°
2026-05-01 07:44 65.17255 -148.84533 37870 ft 469 kts 359°
2026-05-01 07:45 65.23742 -148.84005 37867 ft 467 kts 359°
2026-05-01 07:45 65.30217 -148.83477 37867 ft 467 kts 359°
2026-05-01 07:46 65.36744 -148.82944 37869 ft 467 kts 359°
2026-05-01 07:47 65.46485 -148.82143 37872 ft 469 kts 359°
2026-05-01 07:47 65.53025 -148.81602 37872 ft 470 kts 359°
2026-05-01 07:48 65.62809 -148.80786 37873 ft 471 kts 359°
2026-05-01 07:48 65.69359 -148.80237 37876 ft 472 kts 359°
2026-05-01 07:49 65.79236 -148.79404 37878 ft 473 kts 359°
2026-05-01 07:50 65.85794 -148.78846 37858 ft 474 kts 359°
2026-05-01 07:50 65.95700 -148.77998 37863 ft 474 kts 359°
2026-05-01 07:51 66.02259 -148.77434 37862 ft 473 kts 359°
2026-05-01 07:52 66.12121 -148.76580 37858 ft 473 kts 359°
2026-05-01 07:52 66.18719 -148.76005 37868 ft 472 kts 359°
2026-05-01 07:53 66.28544 -148.75142 37864 ft 471 kts 359°
2026-05-01 07:53 66.35083 -148.74565 37862 ft 471 kts 359°
2026-05-01 07:55 66.51460 -148.73107 37875 ft 471 kts 359°
2026-05-01 07:56 66.67804 -148.71630 37890 ft 470 kts 359°
2026-05-01 07:57 66.77580 -148.70738 37892 ft 470 kts 359°
2026-05-01 07:58 66.90634 -148.69536 37906 ft 470 kts 359°
2026-05-01 07:59 67.03709 -148.68319 37907 ft 470 kts 359°
2026-05-01 08:00 67.23341 -148.66468 37923 ft 471 kts 359°
2026-05-01 08:01 67.36377 -148.65219 37932 ft 470 kts 359°
2026-05-01 08:02 67.46207 -148.64270 37936 ft 470 kts 359°
2026-05-01 08:03 67.55976 -148.63321 37950 ft 469 kts 359°
2026-05-01 08:03 67.65736 -148.62359 37950 ft 468 kts 359°
2026-05-01 08:04 67.78720 -148.61072 37964 ft 466 kts 358°
2026-05-01 08:05 67.85235 -148.60423 37197 ft 467 kts 358°
2026-05-01 08:05 67.88478 -148.60094 36641 ft 463 kts 358°
2026-05-01 08:05 67.91696 -148.59769 36078 ft 461 kts 358°
2026-05-01 08:06 67.98058 -148.59124 34884 ft 458 kts 357°
2026-05-01 08:06 68.04418 -148.58477 33669 ft 455 kts 356°
2026-05-01 08:07 68.10679 -148.57830 32710 ft 443 kts 356°
2026-05-01 08:07 68.16744 -148.57197 31824 ft 432 kts 356°
2026-05-01 08:08 68.19733 -148.56887 31400 ft 426 kts 356°
2026-05-01 08:08 68.25607 -148.56279 30561 ft 417 kts 355°
2026-05-01 08:09 68.31313 -148.55684 29728 ft 408 kts 354°
2026-05-01 08:09 68.34134 -148.55391 29256 ft 404 kts 354°
2026-05-01 08:09 68.36966 -148.55107 28872 ft 412 kts 354°
2026-05-01 08:10 68.42794 -148.54521 27943 ft 415 kts 355°
2026-05-01 08:10 68.48449 -148.53898 27075 ft 403 kts 355°
2026-05-01 08:11 68.53975 -148.53295 26253 ft 392 kts 355°
2026-05-01 08:11 68.59347 -148.52721 25441 ft 384 kts 355°
2026-05-01 08:12 68.64677 -148.52160 24627 ft 381 kts 355°
2026-05-01 08:12 68.67322 -148.51889 24281 ft 389 kts 354°
2026-05-01 08:12 68.72794 -148.51315 23385 ft 389 kts 355°
2026-05-01 08:13 68.75488 -148.51014 22904 ft 384 kts 355°
2026-05-01 08:13 68.78119 -148.50719 22478 ft 379 kts 355°
2026-05-01 08:13 68.83313 -148.50142 21677 ft 368 kts 356°
2026-05-01 08:14 68.85864 -148.49863 21279 ft 364 kts 356°
2026-05-01 08:14 68.88378 -148.49588 20888 ft 360 kts 356°
2026-05-01 08:14 68.90880 -148.49316 20509 ft 358 kts 356°
2026-05-01 08:14 68.93337 -148.49049 20133 ft 357 kts 357°
2026-05-01 08:15 68.95840 -148.48779 19749 ft 363 kts 357°
2026-05-01 08:15 69.00986 -148.48224 18953 ft 369 kts 358°
2026-05-01 08:15 69.03536 -148.47937 18559 ft 364 kts 359°
2026-05-01 08:16 69.06059 -148.47651 18172 ft 360 kts 359°
2026-05-01 08:16 69.08527 -148.47377 17737 ft 357 kts 359°
2026-05-01 08:16 69.11002 -148.47099 17312 ft 352 kts 359°
2026-05-01 08:16 69.13441 -148.46822 16930 ft 347 kts 360°
2026-05-01 08:17 69.15807 -148.46553 16556 ft 343 kts
2026-05-01 08:17 69.18182 -148.46284 16179 ft 339 kts
2026-05-01 08:17 69.20528 -148.46020 15812 ft 335 kts
2026-05-01 08:17 69.22858 -148.45756 15452 ft 331 kts
2026-05-01 08:18 69.25121 -148.45501 15102 ft 328 kts
2026-05-01 08:18 69.29706 -148.44982 14406 ft 331 kts
2026-05-01 08:19 69.34389 -148.44447 13672 ft 337 kts
2026-05-01 08:19 69.36717 -148.44179 13255 ft 333 kts
2026-05-01 08:19 69.39013 -148.43914 12873 ft 327 kts
2026-05-01 08:19 69.41275 -148.43653 12509 ft 322 kts
2026-05-01 08:20 69.43476 -148.43400 12174 ft 317 kts
2026-05-01 08:20 69.45661 -148.43441 11817 ft 312 kts 352°
2026-05-01 08:20 69.47767 -148.44689 11518 ft 306 kts 345°
2026-05-01 08:20 69.49824 -148.46178 11169 ft 303 kts 345°
2026-05-01 08:21 69.51873 -148.47699 10832 ft 305 kts 345°
2026-05-01 08:21 69.53943 -148.49231 10500 ft 308 kts 345°
2026-05-01 08:21 69.56025 -148.50757 10371 ft 308 kts 345°
2026-05-01 08:21 69.58057 -148.52232 10234 ft 300 kts 345°
2026-05-01 08:22 69.60044 -148.53666 10104 ft 289 kts 345°
2026-05-01 08:22 69.61970 -148.55051 9978 ft 280 kts 345°
2026-05-01 08:22 69.63845 -148.56399 9719 ft 276 kts 345°
2026-05-01 08:22 69.65070 -148.57280 9542 ft 273 kts 345°
2026-05-01 08:23 69.66906 -148.58603 9269 ft 270 kts 346°
2026-05-01 08:23 69.68733 -148.59918 8992 ft 268 kts 346°
2026-05-01 08:23 69.71111 -148.61633 8637 ft 265 kts 346°
2026-05-01 08:23 69.72320 -148.62505 8463 ft 263 kts 346°
2026-05-01 08:24 69.74068 -148.63768 8198 ft 261 kts 346°
2026-05-01 08:24 69.75827 -148.65040 7951 ft 259 kts 346°
2026-05-01 08:24 69.77566 -148.66300 7706 ft 257 kts 346°
2026-05-01 08:24 69.79308 -148.67566 7451 ft 259 kts 346°
2026-05-01 08:25 69.81050 -148.68834 7201 ft 264 kts 347°
2026-05-01 08:25 69.82843 -148.70138 6938 ft 264 kts 346°
2026-05-01 08:25 69.84623 -148.71439 6669 ft 262 kts 346°
2026-05-01 08:25 69.86382 -148.72725 6408 ft 260 kts 347°
2026-05-01 08:26 69.88130 -148.73990 6138 ft 257 kts 346°
2026-05-01 08:26 69.89859 -148.75256 5883 ft 255 kts 346°
2026-05-01 08:26 69.91567 -148.76516 5631 ft 252 kts 347°
2026-05-01 08:26 69.93255 -148.77759 5387 ft 249 kts 347°
2026-05-01 08:27 69.94909 -148.78983 5152 ft 246 kts 347°
2026-05-01 08:27 69.96566 -148.80207 4909 ft 244 kts 347°
2026-05-01 08:27 69.98208 -148.81421 4660 ft 242 kts 347°
2026-05-01 08:27 69.99834 -148.82624 4427 ft 240 kts 347°
2026-05-01 08:28 70.01445 -148.83821 4186 ft 237 kts 347°
2026-05-01 08:28 70.03033 -148.84999 3971 ft 239 kts 347°
2026-05-01 08:28 70.04639 -148.86193 3722 ft 237 kts 348°
2026-05-01 08:28 70.06215 -148.87368 3577 ft 226 kts 347°
2026-05-01 08:29 70.07688 -148.88469 3463 ft 210 kts 348°
2026-05-01 08:29 70.09039 -148.89482 3364 ft 195 kts 348°
2026-05-01 08:29 70.10313 -148.90437 3259 ft 182 kts 349°
2026-05-01 08:29 70.11513 -148.91340 3181 ft 175 kts 347°
2026-05-01 08:30 70.12681 -148.92215 3129 ft 177 kts 349°
2026-05-01 08:30 70.13872 -148.92522 2989 ft 166 kts 19°
2026-05-01 08:30 70.14867 -148.91070 2871 ft 158 kts 46°
2026-05-01 08:30 70.15393 -148.88477 2729 ft 147 kts 70°
2026-05-01 08:31 70.15783 -148.85704 2548 ft 144 kts 72°
2026-05-01 08:31 70.16142 -148.82999 2366 ft 138 kts 72°
2026-05-01 08:31 70.16428 -148.80341 2173 ft 137 kts 76°
2026-05-01 08:31 70.16680 -148.77657 2017 ft 138 kts 76°
2026-05-01 08:32 70.16918 -148.75019 1858 ft 131 kts 76°
2026-05-01 08:32 70.17144 -148.72484 1673 ft 124 kts 77°
2026-05-01 08:32 70.17364 -148.70015 1491 ft 125 kts 77°
2026-05-01 08:32 70.17585 -148.67534 1307 ft 125 kts 76°
2026-05-01 08:33 70.17803 -148.65092 1160 ft 124 kts 76°
2026-05-01 08:33 70.18025 -148.62612 988 ft 123 kts 76°
2026-05-01 08:33 70.18243 -148.60175 833 ft 123 kts 75°
2026-05-01 08:33 70.18454 -148.57747 712 ft 125 kts 76°
2026-05-01 08:34 70.18673 -148.55303 567 ft 121 kts 75°
2026-05-01 08:34 70.18893 -148.52940 383 ft 118 kts 75°
2026-05-01 08:34 70.19101 -148.50580 219 ft 121 kts 76°
2026-05-01 08:34 70.19323 -148.48174 89 ft 121 kts 75°
2026-05-01 08:35 70.19508 -148.46143 74 ft 75 kts 74°
2026-05-01 08:35 70.19590 -148.45259 71 ft 14 kts 75°
2026-05-01 08:35 70.19639 -148.45193 70 ft 8 kts 321°
2026-05-01 08:35 70.19691 -148.45278 69 ft 8 kts 345°
2026-05-01 08:36 70.19711 -148.45290 74 ft 0 kts 349°
2026-05-01 08:36 70.19714 -148.45292 75 ft 1 kts 349°
2026-05-01 08:36 70.19720 -148.45296 71 ft 1 kts 347°
2026-05-01 08:36 70.19741 -148.45311 73 ft 7 kts 346°
2026-05-01 08:37 70.19822 -148.45374 73 ft 11 kts 339°
2026-05-01 08:37 70.19817 -148.45578 71 ft 13 kts 255°
2026-05-01 08:37 70.19788 -148.45892 69 ft 18 kts 253°
2026-05-01 08:37 70.19774 -148.46107 69 ft 7 kts 292°
2026-05-01 08:38 70.19814 -148.46171 75 ft 7 kts
2026-05-01 08:38 70.19837 -148.46081 77 ft 6 kts 74°
2026-05-01 08:38 70.19844 -148.46015 77 ft 0 kts 73°